Race Results for…
Pacific Grove Lighthouse 5K 2018

November 10, 2018 Results presented by Big Sur International Marathon and timed by SVE Timing
Participants:
1796
Last Updated:
11/10/2018 11:21:37 AM

Results are preliminary for 3 days.

Stats

Leaderboards

Jump to a Leaderboard

5K

Male - Overall
Bib Name Chip Elapsed Pace City Age
1 13971 DARREN HOLMAN 00:16:07 05:11 min/mile SONORA 43
2 14007 CALEB LLORIN-FERNANDEZ 00:16:17 05:15 min/mile MARINA 19
3 13970 BROEN HOLMAN 00:16:28 05:18 min/mile SONORA 12
Female - Overall
Bib Name Chip Elapsed Pace City Age
1 13895 ANGELICA SALAS 00:18:02 05:49 min/mile LOS ANGELES 20
2 13899 RYLEIGH TEAGUE 00:19:30 06:17 min/mile CARMEL 13
3 139 KAREN SOBRINO 00:19:42 06:21 min/mile ST GALLEN 45

3K

Male - Overall
Bib Name Chip Elapsed Pace City Age
1 15038 AIDAN CINQUE 00:12:04 06:42 min/mile SANTA CRUZ 14
2 15016 JAKE BLACKWELL 00:12:36 07:00 min/mile PACIFIC GROVE 12
3 15158 QUIN RUSSELL 00:13:40 07:35 min/mile 8319179886 9
Female - Overall
Bib Name Chip Elapsed Pace City Age
1 15000 KEMI ADEDIJI 00:13:37 07:33 min/mile HAYWARD 11
2 15248 ELEONOR RAEIM 00:14:19 07:57 min/mile MONTEREY 37
3 15216 JOCELYN CHANG 00:14:43 08:10 min/mile MOUNTAIN VIEW 13

Overall Results

Tip: Swipe the results table to view more.
1527 entrants …
5K Results
Bib Name City Chip Elapsed Pace Division Div Place Age Age Place Gender Gender Place
13971 DARREN HOLMAN SONORA 00:16:07 05:11 min/mile 5K 1 43 1 M 1
14007 CALEB LLORIN-FERNANDEZ MARINA 00:16:17 05:15 min/mile 5K 2 19 1 M 2
13970 BROEN HOLMAN SONORA 00:16:28 05:18 min/mile 5K 3 12 1 M 3
14021 ERIC PALMER MONTEREY 00:16:54 05:27 min/mile 5K 4 33 1 M 4
130 JUAN RIVERA SALINAS 00:16:56 05:27 min/mile 5K 5 37 1 M 5
14190 NATHAN ROSSI MONTEREY 00:17:34 05:40 min/mile 5K 6 24 1 M 6
145 ERIK WEBER SAN DIEGO 00:17:43 05:42 min/mile 5K 7 30 2 M 7
13937 MARK MOEHLING MONTEREY 00:17:49 05:44 min/mile 5K 8 30 3 M 8
14097 SALAAR KHAN PACIFIC GROVE 00:17:52 05:45 min/mile 5K 9 21 2 M 9
13895 ANGELICA SALAS LOS ANGELES 00:18:02 05:49 min/mile 5K 10 20 1 F 1
14251 ANDREW ALONZO SALINAS 00:18:03 05:49 min/mile 5K 11 18 2 M 10
1044 CHARLIE NEEDHAM TORONTO 00:18:09 05:51 min/mile 5K 12 34 4 M 11
2090 CAMERON KELLEHER MONTEREY 00:18:12 05:52 min/mile 5K 13 25 1 M 12
112 JAMES KASTEN MOUNTAIN VIEW 00:18:22 05:55 min/mile 5K 14 30 5 M 13
146 BRIAN WILSON BOSTON 00:18:31 05:58 min/mile 5K 15 30 6 M 14
13757 ANTHONY STONEHOUSE PACIFIC GROVE 00:19:01 06:08 min/mile 5K 16 49 1 M 15
13656 JUSTO ROJO KING CITY 00:19:03 06:08 min/mile 5K 17 55 1 M 16
111 KYRK JORDAN SAN MATEO 00:19:09 06:10 min/mile 5K 18 37 2 M 17
13469 AYMERIC MAUVAIS MENLO PARK 00:19:16 06:12 min/mile 5K 19 15 3 M 18
105 LUKE CONSTABLE LONDON 00:19:28 06:16 min/mile 5K 20 33 7 M 19
14174 WILLIAM HAUPERT OLYMPIC VLY 00:19:29 06:17 min/mile 5K 21 49 2 M 20
13899 RYLEIGH TEAGUE CARMEL 00:19:30 06:17 min/mile 5K 22 13 1 F 2
125 KENTARO ONISHI PITTSBURGH 00:19:31 06:17 min/mile 5K 23 37 3 M 21
13990 ALLAN BAGGO VICTORIA CANADA 00:19:38 06:20 min/mile 5K 24 50 1 M 22
2056 JOEL FENLASON SANTA MARIA 00:19:40 06:20 min/mile 5K 25 45 3 M 23
141 ERIC TLAPANCO SEASIDE 00:19:41 06:20 min/mile 5K 26 26 2 M 24
133 RYAN SAWCHUK CAMPBELL 00:19:41 06:20 min/mile 5K 27 41 2 M 25
143 DANIEL VALDEZ PORTLAND 00:19:41 06:20 min/mile 5K 28 45 4 M 26
139 KAREN SOBRINO ST GALLEN 00:19:42 06:21 min/mile 5K 29 45 1 F 3
128 BAYLOR REID LONGMONT 00:19:55 06:25 min/mile 5K 30 15 4 M 27
122 MALLORY MUELLER MARINA 00:19:57 06:26 min/mile 5K 31 26 1 F 4
120 BRIAN MITCHLER SANTA CRUZ 00:19:58 06:26 min/mile 5K 32 55 2 M 28
2110 ZACHARY MCCUTCHEN WINDSOR 00:20:00 06:27 min/mile 5K 33 31 8 M 29
124 KATE O’SULLIVAN MESSERLI ROSEVILLE 00:20:06 06:29 min/mile 5K 34 37 1 F 5
13437 MIKE LLERANDI BOULDER 00:20:07 06:29 min/mile 5K 35 55 3 M 30
129 BRYAN REID LONGMONT 00:20:08 06:29 min/mile 5K 36 46 5 M 31
13902 TIMUR ALPEROVICH SAN FRANCISCO 00:20:08 06:29 min/mile 5K 37 31 9 M 32
127 LANDON PETERSEN CHICAGO 00:20:10 06:30 min/mile 5K 38 32 10 M 33
1048 ESTEBAN ORTEGA SEASIDE 00:20:19 06:33 min/mile 5K 39 50 2 M 34
136 MATTHEW SHUCK ATASCADERO 00:20:23 06:34 min/mile 5K 40 34 11 M 35
13577 ANDREA PAGE PACIFIC GROVE 00:20:30 06:36 min/mile 5K 41 42 1 F 6
102 RACHAEL BANTON TEMPLETON 00:20:38 06:39 min/mile 5K 42 29 2 F 7
643 DAVID DIAZ MONTEREY 00:20:44 06:41 min/mile 5K 43 45 6 M 36
13890 ABE PEDROZA MARINA 00:20:46 06:41 min/mile 5K 44 38 4 M 37
14005 STEVE SCOTT PACIFIC GROVE 00:20:47 06:42 min/mile 5K 45 62 1 M 38
5045 JADAN ROTTON FERNLEY 00:20:53 06:44 min/mile 5K 46 19 5 M 39
121 SCOTT MOORE PACIFIC GROVE 00:20:54 06:44 min/mile 5K 47 48 7 M 40
13718 BRIAN SIDDONS ANDOVER 00:20:57 06:45 min/mile 5K 48 60 2 M 41
14104 JOHN KAEHLER MONTEREY 00:21:00 06:46 min/mile 5K 49 26 3 M 42
2060 CHAD FRANDSEN SAN LUIS OBISPO 00:21:01 06:46 min/mile 5K 50 35 5 M 43
1527 entrants …

MASTERS Results

Tip: Swipe the results table to view more.
804 entrants …
MASTERS Results
Bib Name City Chip Elapsed Pace Division Div Place Age Age Place Gender Gender Place
13971 DARREN HOLMAN SONORA 00:16:07 05:11 min/mile 5K 1 43 1 M 1
13757 ANTHONY STONEHOUSE PACIFIC GROVE 00:19:01 06:08 min/mile 5K 16 49 1 M 15
13656 JUSTO ROJO KING CITY 00:19:03 06:08 min/mile 5K 17 55 1 M 16
14174 WILLIAM HAUPERT OLYMPIC VLY 00:19:29 06:17 min/mile 5K 21 49 2 M 20
13990 ALLAN BAGGO VICTORIA CANADA 00:19:38 06:20 min/mile 5K 24 50 1 M 22
2056 JOEL FENLASON SANTA MARIA 00:19:40 06:20 min/mile 5K 25 45 3 M 23
133 RYAN SAWCHUK CAMPBELL 00:19:41 06:20 min/mile 5K 27 41 2 M 25
143 DANIEL VALDEZ PORTLAND 00:19:41 06:20 min/mile 5K 28 45 4 M 26
139 KAREN SOBRINO ST GALLEN 00:19:42 06:21 min/mile 5K 29 45 1 F 3
120 BRIAN MITCHLER SANTA CRUZ 00:19:58 06:26 min/mile 5K 32 55 2 M 28
13437 MIKE LLERANDI BOULDER 00:20:07 06:29 min/mile 5K 35 55 3 M 30
129 BRYAN REID LONGMONT 00:20:08 06:29 min/mile 5K 36 46 5 M 31
1048 ESTEBAN ORTEGA SEASIDE 00:20:19 06:33 min/mile 5K 39 50 2 M 34
13577 ANDREA PAGE PACIFIC GROVE 00:20:30 06:36 min/mile 5K 41 42 1 F 6
643 DAVID DIAZ MONTEREY 00:20:44 06:41 min/mile 5K 43 45 6 M 36
14005 STEVE SCOTT PACIFIC GROVE 00:20:47 06:42 min/mile 5K 45 62 1 M 38
121 SCOTT MOORE PACIFIC GROVE 00:20:54 06:44 min/mile 5K 47 48 7 M 40
13718 BRIAN SIDDONS ANDOVER 00:20:57 06:45 min/mile 5K 48 60 2 M 41
14156 JOHN HUGHES DALLAS 00:21:12 06:50 min/mile 5K 51 42 3 M 44
13323 BRIAN HILE PACIFIC GROVE 00:21:18 06:52 min/mile 5K 53 58 4 M 46
1045 MARK NEVILLE GENEVA 00:21:18 06:52 min/mile 5K 55 56 5 M 48
13191 KEVIN DUFAULT SALINAS 00:21:23 06:53 min/mile 5K 56 47 8 M 49
1002 MARK ALLEN PHOENIX 00:21:32 06:56 min/mile 5K 58 58 6 M 50
126 MICHAEL PARKER TEMECULA 00:21:33 06:57 min/mile 5K 61 61 3 M 52
1614 FREDERICK HUXHAM SAN FRANCISCO 00:21:36 06:58 min/mile 5K 64 56 7 M 55
1017 BRIAN EARP CARMEL 00:22:05 07:07 min/mile 5K 72 41 4 M 61
1612 EMMA MEDARA TRUCKEE 00:22:08 07:08 min/mile 5K 73 52 1 F 12
13120 PETER CLAIRE LODI 00:22:18 07:11 min/mile 5K 76 42 5 M 63
117 ARNAUD MAUVAIS MENLO PARK 00:22:21 07:12 min/mile 5K 77 52 3 M 64
13410 ANANT KUMAR SAN JOSE 00:22:28 07:14 min/mile 5K 81 50 4 M 67
1013 SUSANNA CONSTANTINO STOCKTON 00:22:28 07:14 min/mile 5K 82 45 2 F 14
13434 PAUL LINDSAY NORTHWOOD 00:22:31 07:15 min/mile 5K 84 71 1 M 69
6045 CHRISTOPHER PECK PARMA 00:22:34 07:16 min/mile 5K 85 40 6 M 70
1057 DALE SMELSER FAIR OAKS 00:22:38 07:18 min/mile 5K 86 56 8 M 71
13195 MIKE DUNN NEWARK 00:22:50 07:21 min/mile 5K 89 63 4 M 74
1062 ERIC UTSUMI SAN JOSE 00:23:06 07:27 min/mile 5K 96 42 7 M 80
13891 EDWARD PETERLIN SANTA BARBARA 00:23:06 07:27 min/mile 5K 97 41 8 M 81
13565 EMMETT O'CONNELL OLYMPIA 00:23:09 07:28 min/mile 5K 99 42 9 M 83
3003 TERRELL BURCH CAMDEN 00:23:11 07:28 min/mile 5K 101 53 5 M 85
13661 MERCER ROWE SANTA CRUZ 00:23:18 07:30 min/mile 5K 104 41 10 M 87
13104 CALEB CARTER FRESNO 00:23:19 07:31 min/mile 5K 105 42 11 M 88
14098 JENNIFER JORDAN SAN MATEO 00:23:20 07:31 min/mile 5K 106 41 2 F 17
13790 GAE TRIPLETT SANTA BARBARA 00:23:22 07:32 min/mile 5K 109 56 1 F 19
13399 CAROL KNOX SANTA BARBARA 00:23:22 07:32 min/mile 5K 110 55 2 F 20
4059 CHRISTOPHER ZIMMERMAN SANTA CRUZ 00:23:50 07:41 min/mile 5K 119 45 9 M 96
1055 CHRISTY RAY FULLERTON 00:23:53 07:42 min/mile 5K 121 57 3 F 23
3018 ZACH KOONTZ MONTEREY 00:23:54 07:42 min/mile 5K 122 40 12 M 98
1005 CRAIG BETTS RENO 00:23:57 07:43 min/mile 5K 126 58 9 M 101
13421 ELDON LATHAM LOS BANOS 00:24:01 07:44 min/mile 5K 130 54 6 M 104
14160 LUIS LLANO TAMPA 00:24:02 07:45 min/mile 5K 131 58 10 M 105
804 entrants …

Winners

Tip: Slide the results table left and right to view more.
Overall
Bib Name City Chip Elapsed Pace Division Div Place Age Age Place Gender Gender Place
13971 DARREN HOLMAN SONORA 00:16:07 05:11 min/mile 5K 1 43 1 M 1
13895 ANGELICA SALAS LOS ANGELES 00:18:02 05:49 min/mile 5K 10 20 1 F 1
MASTERS
Bib Name City Chip Elapsed Pace Division Div Place Age Age Place Gender Gender Place
13971 DARREN HOLMAN SONORA 00:16:07 05:11 min/mile MASTERS 1 43 1 M 1
139 KAREN SOBRINO ST GALLEN 00:19:42 06:21 min/mile MASTERS 1 45 1 F 1
1 - 8
Bib Name City Chip Elapsed Pace Division Div Place Age Age Place Gender Gender Place
13208 MATTHEW ELLIS CARMEL VALLEY 00:27:45 08:57 min/mile 5K 312 8 1 M 194
13737 OLIVER SOPARKAR PALO ALTO 00:29:41 09:34 min/mile 5K 422 7 2 M 243
13774 MIGUEL TEIXEIRA SAN JOSE 00:30:40 09:53 min/mile 5K 469 7 3 M 261
13367 IAN JUDD SAN JOSE 00:31:09 10:02 min/mile 5K 490 7 4 M 272
13691 JONAH SCHNEIDER SAN JOSE 00:33:31 10:48 min/mile 5K 654 7 5 M 329
13460 ANNABELLE MANN SEASIDE 00:27:06 08:44 min/mile 5K 273 7 1 F 95
14137 INNA ROCKLIN SAN FRANCISCO 00:29:16 09:26 min/mile 5K 392 8 2 F 163
13448 EMMA LYON DUBLIN 00:31:03 10:00 min/mile 5K 483 6 3 F 214
13396 KEIRA KLEMMICK WOODSIDE 00:32:20 10:25 min/mile 5K 566 7 4 F 265
14016 ADELHEID COX PACIFIC GROVE 00:32:58 10:38 min/mile 5K 617 5 5 F 302
9 - 11
Bib Name City Chip Elapsed Pace Division Div Place Age Age Place Gender Gender Place
14184 LUCA GURDGIEV PEBBLE BEACH 00:21:15 06:51 min/mile 5K 52 11 1 M 45
13885 CUJO HAUPERT OLYMPIC VALLEY 00:21:43 07:00 min/mile 5K 66 10 2 M 57
14161 SHREY SWAMINATHAN SAN RAMON 00:21:51 07:02 min/mile 5K 67 11 3 M 58
13684 DREW SCHERMERHORN MONTEREY 00:23:38 07:37 min/mile 5K 113 11 4 M 92
13200 JACOB EARP CARMEL 00:23:55 07:42 min/mile 5K 123 11 5 M 99
13129 LUISA COLE PIEDMONT 00:21:53 07:03 min/mile 5K 70 11 1 F 10
13308 SHELI HAZAN PLEASANTON 00:26:14 08:27 min/mile 5K 235 11 2 F 70
13639 CAMERON REISZ SANTA CRUZ 00:28:38 09:14 min/mile 5K 357 9 3 F 145
13131 LEANA COLLINS CARMEL VALLEY 00:29:11 09:24 min/mile 5K 389 9 4 F 160
13333 ANNELIESE HOLMES SANTA BARBARA 00:29:46 09:36 min/mile 5K 426 10 5 F 180
12 - 14
Bib Name City Chip Elapsed Pace Division Div Place Age Age Place Gender Gender Place
13970 BROEN HOLMAN SONORA 00:16:28 05:18 min/mile 5K 3 12 1 M 3
13443 OMAR LOPEZ SAN JOSE 00:21:18 06:52 min/mile 5K 54 13 2 M 47
13992 CORBIN HOBERT DENVER 00:21:33 06:57 min/mile 5K 62 13 3 M 53
14159 NATHAN EMERSON SALINAS 00:21:39 06:59 min/mile 5K 65 14 4 M 56
7016 MAX COLE PIEDMONT 00:21:53 07:03 min/mile 5K 69 14 5 M 60
13899 RYLEIGH TEAGUE CARMEL 00:19:30 06:17 min/mile 5K 22 13 1 F 2
14148 CLARISSA RIVERA SALINAS 00:25:14 08:08 min/mile 5K 191 12 2 F 48
13365 QUINN JOYCE SAN ANSELMO 00:25:18 08:09 min/mile 5K 193 12 3 F 50
13815 KALIA VILLANUEVA SAN JOSE 00:25:36 08:15 min/mile 5K 206 13 4 F 56
13567 NOA OHAD DANVILLE 00:26:14 08:27 min/mile 5K 238 13 5 F 72
15 - 19
Bib Name City Chip Elapsed Pace Division Div Place Age Age Place Gender Gender Place
14007 CALEB LLORIN-FERNANDEZ MARINA 00:16:17 05:15 min/mile 5K 2 19 1 M 2
14251 ANDREW ALONZO SALINAS 00:18:03 05:49 min/mile 5K 11 18 2 M 10
13469 AYMERIC MAUVAIS MENLO PARK 00:19:16 06:12 min/mile 5K 19 15 3 M 18
128 BAYLOR REID LONGMONT 00:19:55 06:25 min/mile 5K 30 15 4 M 27
5045 JADAN ROTTON FERNLEY 00:20:53 06:44 min/mile 5K 46 19 5 M 39
137 LAUREN SIMONIAN CLOVIS 00:21:53 07:03 min/mile 5K 71 19 1 F 11
7015 ELIE COLE PIEDMONT 00:23:20 07:31 min/mile 5K 107 17 2 F 18
13988 SAMNATHA HANCOCK MONROE 00:26:11 08:26 min/mile 5K 230 17 3 F 67
14149 MONSERRAT BASTIDA SEASIDE 00:27:45 08:57 min/mile 5K 314 16 4 F 119
13904 OLIVIA CORONADO DEL REY OAKS 00:28:37 09:13 min/mile 5K 355 15 5 F 143
20 - 24
Bib Name City Chip Elapsed Pace Division Div Place Age Age Place Gender Gender Place
14190 NATHAN ROSSI MONTEREY 00:17:34 05:40 min/mile 5K 6 24 1 M 6
14097 SALAAR KHAN PACIFIC GROVE 00:17:52 05:45 min/mile 5K 9 21 2 M 9
3028 ERIC MORA SEASIDE 00:21:34 06:57 min/mile 5K 63 24 3 M 54
13659 DANIEL ROSSILLON SAN RAMON 00:23:08 07:27 min/mile 5K 98 23 4 M 82
1018 DAVID ECHEVERRIA SEASIDE 00:23:34 07:36 min/mile 5K 112 21 5 M 91
13895 ANGELICA SALAS LOS ANGELES 00:18:02 05:49 min/mile 5K 10 20 1 F 1
140 MICHELLE SWAROVSKI REDWOOD CITY 00:22:22 07:12 min/mile 5K 78 23 2 F 13
14009 KRISTA SMITH SAN FRANCISCO 00:24:24 07:52 min/mile 5K 152 23 3 F 34
13958 ALIVIA PASCACIO CEDAR RAPIDS 00:25:07 08:06 min/mile 5K 185 20 4 F 45
13444 GINA LU CUPERTINO 00:26:02 08:23 min/mile 5K 224 23 5 F 65
25 - 29
Bib Name City Chip Elapsed Pace Division Div Place Age Age Place Gender Gender Place
2090 CAMERON KELLEHER MONTEREY 00:18:12 05:52 min/mile 5K 13 25 1 M 12
141 ERIC TLAPANCO SEASIDE 00:19:41 06:20 min/mile 5K 26 26 2 M 24
14104 JOHN KAEHLER MONTEREY 00:21:00 06:46 min/mile 5K 49 26 3 M 42
13955 JEFFREY CHEN SAN JOSE 00:22:48 07:21 min/mile 5K 88 25 4 M 73
3002 NESTOR BRAMBILA JR MARINA 00:23:01 07:25 min/mile 5K 93 25 5 M 78
122 MALLORY MUELLER MARINA 00:19:57 06:26 min/mile 5K 31 26 1 F 4
102 RACHAEL BANTON TEMPLETON 00:20:38 06:39 min/mile 5K 42 29 2 F 7
1024 ASHLEY GARDNER SAN FRANCISCO 00:23:12 07:29 min/mile 5K 102 28 3 F 16
4001 ANA ACOSTA SALINAS 00:23:44 07:39 min/mile 5K 117 26 4 F 21
13926 CRISTINA PRUETT SAN FRANCISCO 00:23:57 07:43 min/mile 5K 125 26 5 F 24
30 - 34
Bib Name City Chip Elapsed Pace Division Div Place Age Age Place Gender Gender Place
14021 ERIC PALMER MONTEREY 00:16:54 05:27 min/mile 5K 4 33 1 M 4
145 ERIK WEBER SAN DIEGO 00:17:43 05:42 min/mile 5K 7 30 2 M 7
13937 MARK MOEHLING MONTEREY 00:17:49 05:44 min/mile 5K 8 30 3 M 8
1044 CHARLIE NEEDHAM TORONTO 00:18:09 05:51 min/mile 5K 12 34 4 M 11
112 JAMES KASTEN MOUNTAIN VIEW 00:18:22 05:55 min/mile 5K 14 30 5 M 13
2071 JEN GRUBER SEASIDE 00:21:33 06:57 min/mile 5K 60 31 1 F 9
4006 MARIA BELLUMORI MARINA 00:23:04 07:26 min/mile 5K 94 33 2 F 15
132 BEATRICE SANCHEZ GREENFIELD 00:23:47 07:40 min/mile 5K 118 32 3 F 22
6043 CLAIRE PARSONS MONTEREY 00:24:17 07:50 min/mile 5K 146 31 4 F 32
1037 SARAH LEONARD CHEYENNE 00:24:29 07:53 min/mile 5K 155 30 5 F 37
35 - 39
Bib Name City Chip Elapsed Pace Division Div Place Age Age Place Gender Gender Place
130 JUAN RIVERA SALINAS 00:16:56 05:27 min/mile 5K 5 37 1 M 5
111 KYRK JORDAN SAN MATEO 00:19:09 06:10 min/mile 5K 18 37 2 M 17
125 KENTARO ONISHI PITTSBURGH 00:19:31 06:17 min/mile 5K 23 37 3 M 21
13890 ABE PEDROZA MARINA 00:20:46 06:41 min/mile 5K 44 38 4 M 37
2060 CHAD FRANDSEN SAN LUIS OBISPO 00:21:01 06:46 min/mile 5K 50 35 5 M 43
124 KATE O’SULLIVAN MESSERLI ROSEVILLE 00:20:06 06:29 min/mile 5K 34 37 1 F 5
13934 LINDSAY WETZEL POLIN MARINA 00:21:25 06:54 min/mile 5K 57 37 2 F 8
1064 LAURA WALSH TORONTO 00:24:15 07:49 min/mile 5K 143 35 3 F 29
13855 LILY ZEPEDA SANTA MONICA 00:24:17 07:50 min/mile 5K 145 37 4 F 31
13060 STEPHANIE BRANNEN MONTARA 00:24:32 07:54 min/mile 5K 157 37 5 F 38
40 - 44
Bib Name City Chip Elapsed Pace Division Div Place Age Age Place Gender Gender Place
13971 DARREN HOLMAN SONORA 00:16:07 05:11 min/mile 5K 1 43 1 M 1
133 RYAN SAWCHUK CAMPBELL 00:19:41 06:20 min/mile 5K 27 41 2 M 25
14156 JOHN HUGHES DALLAS 00:21:12 06:50 min/mile 5K 51 42 3 M 44
1017 BRIAN EARP CARMEL 00:22:05 07:07 min/mile 5K 72 41 4 M 61
13120 PETER CLAIRE LODI 00:22:18 07:11 min/mile 5K 76 42 5 M 63
13577 ANDREA PAGE PACIFIC GROVE 00:20:30 06:36 min/mile 5K 41 42 1 F 6
14098 JENNIFER JORDAN SAN MATEO 00:23:20 07:31 min/mile 5K 106 41 2 F 17
1059 SARAH THOMAS ARNOLD 00:24:10 07:47 min/mile 5K 139 43 3 F 26
1041 MARTHA A MENDOZA SAN LEANDRO 00:24:12 07:48 min/mile 5K 140 44 4 F 27
1026 LISA GILLUND MINNEOTA 00:24:15 07:49 min/mile 5K 144 40 5 F 30
45 - 49
Bib Name City Chip Elapsed Pace Division Div Place Age Age Place Gender Gender Place
13757 ANTHONY STONEHOUSE PACIFIC GROVE 00:19:01 06:08 min/mile 5K 16 49 1 M 15
14174 WILLIAM HAUPERT OLYMPIC VLY 00:19:29 06:17 min/mile 5K 21 49 2 M 20
2056 JOEL FENLASON SANTA MARIA 00:19:40 06:20 min/mile 5K 25 45 3 M 23
143 DANIEL VALDEZ PORTLAND 00:19:41 06:20 min/mile 5K 28 45 4 M 26
129 BRYAN REID LONGMONT 00:20:08 06:29 min/mile 5K 36 46 5 M 31
139 KAREN SOBRINO ST GALLEN 00:19:42 06:21 min/mile 5K 29 45 1 F 3
1013 SUSANNA CONSTANTINO STOCKTON 00:22:28 07:14 min/mile 5K 82 45 2 F 14
1030 JENNIFER HUFNAGEL LA HABRA HGTS 00:24:12 07:48 min/mile 5K 141 48 3 F 28
4046 TRISSY RIGGS BRENTWOOD 00:24:54 08:01 min/mile 5K 173 48 4 F 42
1023 LINDE FREEMAN SACRAMENTO 00:24:56 08:02 min/mile 5K 175 45 5 F 43
50 - 54
Bib Name City Chip Elapsed Pace Division Div Place Age Age Place Gender Gender Place
13990 ALLAN BAGGO VICTORIA CANADA 00:19:38 06:20 min/mile 5K 24 50 1 M 22
1048 ESTEBAN ORTEGA SEASIDE 00:20:19 06:33 min/mile 5K 39 50 2 M 34
117 ARNAUD MAUVAIS MENLO PARK 00:22:21 07:12 min/mile 5K 77 52 3 M 64
13410 ANANT KUMAR SAN JOSE 00:22:28 07:14 min/mile 5K 81 50 4 M 67
3003 TERRELL BURCH CAMDEN 00:23:11 07:28 min/mile 5K 101 53 5 M 85
1612 EMMA MEDARA TRUCKEE 00:22:08 07:08 min/mile 5K 73 52 1 F 12
14101 KAREN RICHEY ASHBURN 00:24:22 07:51 min/mile 5K 150 50 2 F 33
1006 SARAH BOSWELL SAN RAMON 00:24:26 07:52 min/mile 5K 154 53 3 F 36
4004 KIM BADERTSCHER CLOVIS 00:25:25 08:11 min/mile 5K 198 50 4 F 51
3029 BRENDA MORRIS WORCESTER 00:25:58 08:22 min/mile 5K 222 53 5 F 63
55 - 59
Bib Name City Chip Elapsed Pace Division Div Place Age Age Place Gender Gender Place
13656 JUSTO ROJO KING CITY 00:19:03 06:08 min/mile 5K 17 55 1 M 16
120 BRIAN MITCHLER SANTA CRUZ 00:19:58 06:26 min/mile 5K 32 55 2 M 28
13437 MIKE LLERANDI BOULDER 00:20:07 06:29 min/mile 5K 35 55 3 M 30
13323 BRIAN HILE PACIFIC GROVE 00:21:18 06:52 min/mile 5K 53 58 4 M 46
1045 MARK NEVILLE GENEVA 00:21:18 06:52 min/mile 5K 55 56 5 M 48
13790 GAE TRIPLETT SANTA BARBARA 00:23:22 07:32 min/mile 5K 109 56 1 F 19
13399 CAROL KNOX SANTA BARBARA 00:23:22 07:32 min/mile 5K 110 55 2 F 20
1055 CHRISTY RAY FULLERTON 00:23:53 07:42 min/mile 5K 121 57 3 F 23
13720 JEANETTE SIDDONS ANDOVER 00:24:39 07:57 min/mile 5K 164 59 4 F 40
100 MICHELE ALLEN SAN ANTONIO 00:26:16 08:28 min/mile 5K 244 56 5 F 77
60 - 64
Bib Name City Chip Elapsed Pace Division Div Place Age Age Place Gender Gender Place
14005 STEVE SCOTT PACIFIC GROVE 00:20:47 06:42 min/mile 5K 45 62 1 M 38
13718 BRIAN SIDDONS ANDOVER 00:20:57 06:45 min/mile 5K 48 60 2 M 41
126 MICHAEL PARKER TEMECULA 00:21:33 06:57 min/mile 5K 61 61 3 M 52
13195 MIKE DUNN NEWARK 00:22:50 07:21 min/mile 5K 89 63 4 M 74
14136 GARY JEFF FRESNO 00:24:22 07:51 min/mile 5K 149 62 5 M 116
14003 JOANN SCOTT PACIFIC GROVE 00:26:15 08:28 min/mile 5K 243 64 1 F 76
13185 ANN MARIE DRAEGER PORTOLA VALLEY 00:26:34 08:34 min/mile 5K 256 60 2 F 85
3017 MARCIE KIRSCH PLANTATION 00:27:34 08:53 min/mile 5K 299 62 3 F 111
7046 KARIE TANABE CUPERTINO 00:27:46 08:57 min/mile 5K 315 60 4 F 120
7052 TONI WESTERMANN ELK GROVE 00:28:05 09:03 min/mile 5K 327 62 5 F 125
65 - 69
Bib Name City Chip Elapsed Pace Division Div Place Age Age Place Gender Gender Place
118 BOBBY MCKEE LA SELVA BCH 00:24:08 07:47 min/mile 5K 136 69 1 M 110
13768 BRENT TAYLOR PACIFIC GROVE 00:26:11 08:26 min/mile 5K 231 65 2 M 163
14110 HANK ARMSTRONG PACIFIC GROVE 00:28:08 09:04 min/mile 5K 330 65 3 M 203
13717 AL SIDDONS CORONA 00:28:40 09:14 min/mile 5K 360 67 4 M 213
5043 STEVE RADIGAN FREMONT 00:28:44 09:16 min/mile 5K 366 67 5 M 217
6038 JULIA NELSON LOS GATOS 00:30:03 09:41 min/mile 5K 444 65 1 F 194
13581 KAREN PARK KING CITY 00:32:03 10:20 min/mile 5K 544 65 2 F 250
13032 DEBBIE BAKER LOS ALTOS 00:32:03 10:20 min/mile 5K 545 65 3 F 251
7051 LYNNE WERNER SEATTLE 00:34:25 11:06 min/mile 5K 716 67 4 F 370
13470 GAYLE MAYEKAWA BURLINGAME 00:37:22 12:03 min/mile 5K 869 66 5 F 475
70 - 74
Bib Name City Chip Elapsed Pace Division Div Place Age Age Place Gender Gender Place
13434 PAUL LINDSAY NORTHWOOD 00:22:31 07:15 min/mile 5K 84 71 1 M 69
13097 WAYNE CAMPBELL SELMA 00:27:17 08:48 min/mile 5K 280 70 2 M 179
13749 ALLAN STANBRIDGE BURLINGAME 00:27:51 08:59 min/mile 5K 319 71 3 M 197
5031 MICHAEL MAGATELLI SACRAMENTO 00:29:06 09:23 min/mile 5K 384 70 4 M 227
4043 EDWARD PEASE SAN MATEO 00:31:21 10:06 min/mile 5K 501 72 5 M 276
7048 CAROL TURNER NEWARK 00:35:31 11:27 min/mile 5K 778 73 1 F 413
14006 JUDY DOW MONTEREY 00:37:49 12:11 min/mile 5K 896 72 2 F 492
13256 CAROL FUESSENICH PACIFIC GROVE 00:44:25 14:19 min/mile 5K 1150 71 3 F 678
13715 CHRIS SHUCK ATASCADERO 00:44:31 14:21 min/mile 5K 1157 71 4 F 682
14025 JENNIFER JORDAN FRESNO 00:44:59 14:30 min/mile 5K 1166 72 5 F 689
75 - 79
Bib Name City Chip Elapsed Pace Division Div Place Age Age Place Gender Gender Place
14201 CARL OUTZEN MONTEREY 00:36:40 11:49 min/mile 5K 843 79 1 M 384
13430 PETER LEVIN CARMEL 00:38:03 12:16 min/mile 5K 908 79 2 M 407
13304 GERALD HAYWOOD ATWATER 00:42:11 13:36 min/mile 5K 1080 78 3 M 457
13784 JOHN D. TOMPKIN MONTEREY 00:51:31 16:37 min/mile 5K 1325 75 4 M 519
13002 BILL ACKERKNECHT SANTA CRUZ 00:56:04 18:05 min/mile 5K 1411 76 5 M 545
11044 NANCY MITRICK FREMONT 00:43:36 14:03 min/mile 5K 1120 75 1 F 653
14018 NAT DEFIEBRE PRUNDALE 00:52:43 17:00 min/mile 5K 1357 79 2 F 825
13941 HELGA MUELLER HILDRIZHAUSEN 00:59:51 19:18 min/mile 5K 1454 76 3 F 900
14188 MARJORIE CAMACHO SALINAS 00:59:54 19:19 min/mile 5K 1455 78 4 F 901
80 - 84
Bib Name City Chip Elapsed Pace Division Div Place Age Age Place Gender Gender Place
13174 ROBERT DIEHL DEL MAR 00:53:23 17:13 min/mile 5K 1375 84 1 M 534
13949 BERT SZIRAK HILDRIZHAUSEN 01:00:06 19:23 min/mile 5K 1459 83 2 M 556
13047 JACQUELIN BARTZ FOLSOM 00:43:47 14:07 min/mile 5K 1128 80 1 F 659
13009 KATHRYN H. ALLAN CARMEL 00:46:07 14:52 min/mile 5K 1193 80 2 F 710
14158 GLORIA DAKE SALINAS 00:58:27 18:51 min/mile 5K 1437 83 3 F 887
85 - 98
Bib Name City Chip Elapsed Pace Division Div Place Age Age Place Gender Gender Place
85 - 89
Bib Name City Chip Elapsed Pace Division Div Place Age Age Place Gender Gender Place
90 - 99
Bib Name City Chip Elapsed Pace Division Div Place Age Age Place Gender Gender Place
99 - 99
Bib Name City Chip Elapsed Pace Division Div Place Age Age Place Gender Gender Place

Race Info

Participants:
1796
Last Updated:
11/10/2018 11:21:37 AM

Results are preliminary for 3 days.

Tip: Swipe the results table to view more.

Search for Name, Bib, City, State or Team
in the field above… by clicking the icon below…

Notes & Race Statistics

HALF MARATHON - 0


Male
Total Finishers Avg Pace
0 00:00

Female
Total Finishers Avg Pace
0 00:00

5K - 1527


Male
Total Finishers Avg Pace
573 10:57

Female
Total Finishers Avg Pace
954 12:46

3K - 269


Male
Total Finishers Avg Pace
125 14:03

Female
Total Finishers Avg Pace
144 14:17
Timed using RM Timing Systems
Take control of your event
A product of US Sports Timing

Have a question or need to make a correction?

Submit a Result Correction